TimeCST,TemperatureF,Dew PointF,Humidity,Sea Level PressureIn,VisibilityMPH,Wind Direction,Wind SpeedMPH,Gust SpeedMPH,PrecipitationIn,Events,Conditions,WindDirDegrees,DateUTC
12:15 AM,35.6,-0.4,22,29.80,10.0,West,26.5,-,N/A,,Clear,280,2013-02-25 06:15:00
12:35 AM,35.6,1.4,24,29.81,10.0,West,27.6,-,N/A,,Clear,280,2013-02-25 06:35:00
12:55 AM,35.6,6.8,30,29.82,10.0,West,24.2,34.5,N/A,,Clear,280,2013-02-25 06:55:00
1:15 AM,33.8,6.8,32,29.83,10.0,West,26.5,34.5,N/A,,Clear,280,2013-02-25 07:15:00
1:35 AM,33.8,10.4,38,29.83,10.0,West,28.8,33.4,N/A,,Clear,280,2013-02-25 07:35:00
1:55 AM,33.8,12.2,41,29.83,10.0,West,29.9,-,N/A,,Clear,270,2013-02-25 07:55:00
2:15 AM,33.8,12.2,41,29.83,10.0,West,27.6,31.1,N/A,,Clear,280,2013-02-25 08:15:00
2:35 AM,33.8,12.2,41,29.84,10.0,West,25.3,-,N/A,,Scattered Clouds,280,2013-02-25 08:35:00
2:55 AM,32.0,10.4,41,29.86,10.0,West,24.2,31.1,N/A,,Scattered Clouds,280,2013-02-25 08:55:00
3:15 AM,32.0,10.4,41,29.86,10.0,WNW,20.7,28.8,N/A,,Mostly Cloudy,290,2013-02-25 09:15:00
3:35 AM,32.0,10.4,41,29.87,10.0,WNW,24.2,28.8,N/A,,Mostly Cloudy,290,2013-02-25 09:35:00
3:55 AM,30.2,8.6,40,29.87,10.0,West,20.7,26.5,N/A,,Scattered Clouds,280,2013-02-25 09:55:00
4:15 AM,30.2,8.6,40,29.87,10.0,WNW,15.0,23.0,N/A,,Mostly Cloudy,290,2013-02-25 10:15:00
4:35 AM,30.2,8.6,40,29.88,10.0,West,16.1,19.6,N/A,,Overcast,270,2013-02-25 10:35:00
4:55 AM,28.4,6.8,40,29.88,10.0,West,13.8,19.6,N/A,,Mostly Cloudy,270,2013-02-25 10:55:00
5:15 AM,28.4,6.8,40,29.89,10.0,West,12.7,21.9,N/A,,Clear,280,2013-02-25 11:15:00
5:35 AM,28.4,6.8,40,29.89,10.0,West,17.3,-,N/A,,Clear,270,2013-02-25 11:35:00
5:55 AM,28.4,6.8,40,29.90,10.0,West,24.2,-,N/A,,Clear,280,2013-02-25 11:55:00
6:15 AM,28.4,6.8,40,29.90,10.0,West,25.3,31.1,N/A,,Clear,280,2013-02-25 12:15:00
6:35 AM,28.4,6.8,40,29.91,10.0,WNW,20.7,-,N/A,,Clear,290,2013-02-25 12:35:00
6:55 AM,28.4,6.8,40,29.92,10.0,West,19.6,-,N/A,,Clear,280,2013-02-25 12:55:00
7:15 AM,28.4,8.6,43,29.92,10.0,WNW,24.2,29.9,N/A,,Partly Cloudy,290,2013-02-25 13:15:00
7:35 AM,28.4,12.2,51,29.93,10.0,WNW,24.2,34.5,N/A,,Partly Cloudy,290,2013-02-25 13:35:00
7:55 AM,28.4,12.2,51,29.96,10.0,NW,18.4,25.3,N/A,,Clear,310,2013-02-25 13:55:00
8:15 AM,28.4,12.2,51,29.97,10.0,WNW,19.6,26.5,N/A,,Partly Cloudy,300,2013-02-25 14:15:00
8:35 AM,28.4,12.2,51,29.98,10.0,WNW,17.3,24.2,N/A,,Clear,300,2013-02-25 14:35:00
8:55 AM,30.2,14.0,51,30.00,10.0,WNW,19.6,27.6,N/A,,Clear,300,2013-02-25 14:55:00
9:15 AM,30.2,15.8,55,30.01,10.0,WNW,19.6,24.2,N/A,,Scattered Clouds,300,2013-02-25 15:15:00
9:35 AM,33.8,15.8,48,30.02,10.0,WNW,19.6,25.3,N/A,,Partly Cloudy,300,2013-02-25 15:35:00
9:55 AM,35.6,15.8,44,30.02,10.0,WNW,20.7,26.5,N/A,,Clear,300,2013-02-25 15:55:00
10:15 AM,35.6,15.8,44,30.03,10.0,WNW,23.0,26.5,N/A,,Partly Cloudy,290,2013-02-25 16:15:00
10:35 AM,37.4,15.8,41,30.03,10.0,WNW,23.0,27.6,N/A,,Scattered Clouds,300,2013-02-25 16:35:00
10:55 AM,37.4,15.8,41,30.03,10.0,WNW,21.9,-,N/A,,Partly Cloudy,290,2013-02-25 16:55:00
11:15 AM,39.2,15.8,39,30.02,10.0,WNW,24.2,27.6,N/A,,Clear,290,2013-02-25 17:15:00
11:35 AM,41.0,15.8,36,30.03,10.0,WNW,23.0,-,N/A,,Clear,300,2013-02-25 17:35:00
11:55 AM,42.8,14.0,31,30.03,10.0,WNW,23.0,28.8,N/A,,Clear,300,2013-02-25 17:55:00
12:15 PM,42.8,15.8,34,30.04,10.0,WNW,23.0,27.6,N/A,,Partly Cloudy,290,2013-02-25 18:15:00
12:35 PM,44.6,15.8,31,30.03,10.0,WNW,24.2,29.9,N/A,,Scattered Clouds,290,2013-02-25 18:35:00
12:55 PM,44.6,15.8,31,30.01,10.0,WNW,18.4,27.6,N/A,,Scattered Clouds,290,2013-02-25 18:55:00
1:15 PM,46.4,15.8,29,30.01,10.0,West,25.3,-,N/A,,Partly Cloudy,280,2013-02-25 19:15:00
1:35 PM,46.4,15.8,29,29.99,10.0,WNW,25.3,29.9,N/A,,Partly Cloudy,300,2013-02-25 19:35:00
1:55 PM,46.4,15.8,29,29.99,10.0,West,21.9,28.8,N/A,,Clear,270,2013-02-25 19:55:00
2:15 PM,48.2,15.8,27,29.98,10.0,West,20.7,26.5,N/A,,Clear,280,2013-02-25 20:15:00
2:35 PM,48.2,12.2,24,29.98,10.0,WNW,19.6,31.1,N/A,,Clear,290,2013-02-25 20:35:00
2:55 PM,48.2,12.2,24,29.98,10.0,WNW,21.9,31.1,N/A,,Clear,290,2013-02-25 20:55:00
3:15 PM,48.2,12.2,24,29.97,10.0,WNW,20.7,28.8,N/A,,Clear,290,2013-02-25 21:15:00
3:35 PM,48.2,12.2,24,29.98,10.0,WNW,25.3,31.1,N/A,,Clear,290,2013-02-25 21:35:00
3:55 PM,48.2,12.2,24,29.98,10.0,West,24.2,29.9,N/A,,Clear,280,2013-02-25 21:55:00
4:15 PM,48.2,12.2,24,29.98,10.0,WNW,25.3,-,N/A,,Clear,290,2013-02-25 22:15:00
4:35 PM,48.2,10.4,22,29.99,10.0,WNW,19.6,26.5,N/A,,Clear,290,2013-02-25 22:35:00
4:55 PM,48.2,10.4,22,29.98,10.0,WNW,13.8,26.5,N/A,,Clear,300,2013-02-25 22:55:00
5:15 PM,48.2,10.4,22,29.98,10.0,West,17.3,29.9,N/A,,Clear,270,2013-02-25 23:15:00
5:35 PM,48.2,8.6,20,29.98,10.0,WNW,20.7,26.5,N/A,,Clear,290,2013-02-25 23:35:00
5:55 PM,46.4,8.6,22,29.99,10.0,WNW,20.7,25.3,N/A,,Clear,300,2013-02-25 23:55:00
6:15 PM,46.4,6.8,20,30.00,10.0,WNW,19.6,24.2,N/A,,Clear,300,2013-02-26 00:15:00
6:35 PM,44.6,8.6,23,30.00,10.0,WNW,16.1,25.3,N/A,,Clear,300,2013-02-26 00:35:00
6:55 PM,42.8,6.8,23,30.01,10.0,WNW,15.0,-,N/A,,Clear,300,2013-02-26 00:55:00
7:15 PM,42.8,6.8,23,30.01,10.0,WNW,16.1,20.7,N/A,,Clear,300,2013-02-26 01:15:00
7:35 PM,41.0,6.8,24,30.01,10.0,WNW,12.7,-,N/A,,Clear,300,2013-02-26 01:35:00
7:55 PM,39.2,6.8,26,30.02,10.0,WNW,10.4,-,N/A,,Clear,290,2013-02-26 01:55:00
8:15 PM,37.4,6.8,28,30.03,10.0,WNW,8.1,-,N/A,,Clear,290,2013-02-26 02:15:00
8:35 PM,35.6,6.8,30,30.04,10.0,WNW,9.2,-,N/A,,Clear,300,2013-02-26 02:35:00
8:55 PM,35.6,6.8,30,30.03,10.0,WNW,12.7,-,N/A,,Clear,300,2013-02-26 02:55:00
9:15 PM,35.6,6.8,30,30.04,10.0,WNW,11.5,-,N/A,,Clear,290,2013-02-26 03:15:00
9:35 PM,35.6,6.8,30,30.04,10.0,WNW,12.7,-,N/A,,Clear,300,2013-02-26 03:35:00
9:55 PM,33.8,6.8,32,30.04,10.0,WNW,10.4,-,N/A,,Clear,290,2013-02-26 03:55:00
10:15 PM,33.8,6.8,32,30.05,10.0,WNW,9.2,-,N/A,,Clear,290,2013-02-26 04:15:00
10:35 PM,33.8,6.8,32,30.05,10.0,WNW,6.9,-,N/A,,Clear,290,2013-02-26 04:35:00
10:55 PM,30.2,6.8,37,30.05,10.0,WNW,3.5,-,N/A,,Clear,290,2013-02-26 04:55:00
11:15 PM,30.2,5.0,34,30.04,10.0,Calm,Calm,-,N/A,,Clear,0,2013-02-26 05:15:00
11:35 PM,30.2,5.0,34,30.04,10.0,Calm,Calm,-,N/A,,Clear,0,2013-02-26 05:35:00
11:55 PM,28.4,3.2,34,30.04,10.0,SW,3.5,-,N/A,,Clear,220,2013-02-26 05:55:00